TimeGMT,TemperatureF,Dew PointF,Humidity,Sea Level PressureIn,VisibilityMPH,Wind Direction,Wind SpeedMPH,Gust SpeedMPH,PrecipitationIn,Events,Conditions,WindDirDegrees,DateUTC
12:50 AM,46.4,42.8,87,29.39,6.2,WNW,15.0,-,N/A,,Scattered Clouds,290,2012-11-05 00:50:00
1:50 AM,46.4,42.8,87,29.39,6.2,West,19.6,34.5,N/A,,Mostly Cloudy,280,2012-11-05 01:50:00
2:50 AM,46,42,83,29.41,10,West,12.7,,,Rain,Light Rain Showers,270,2012-11-05 02:50:00
2:50 AM,46.4,42.8,87,29.39,6.2,West,12.7,25.3,N/A,Rain,Light Rain Showers,270,2012-11-05 02:50:00
3:50 AM,46.4,42.8,87,29.39,6.2,West,19.6,33.4,N/A,Rain,Light Rain Showers,280,2012-11-05 03:50:00
4:50 AM,48.2,44.6,87,29.39,6.2,West,12.7,32.2,N/A,,Mostly Cloudy,260,2012-11-05 04:50:00
5:50 AM,47,43,80,29.43,11,WSW,10.4,,,,Mostly Cloudy,250,2012-11-05 05:50:00
5:50 AM,48.2,42.8,82,29.42,6.2,WSW,10.4,21.9,N/A,,Mostly Cloudy,250,2012-11-05 05:50:00
6:50 AM,46.4,44.6,93,29.44,6.2,SE,4.6,-,N/A,,Mostly Cloudy,140,2012-11-05 06:50:00
7:50 AM,44.6,44.6,100,29.50,6.2,ENE,16.1,-,N/A,,Scattered Clouds,60,2012-11-05 07:50:00
8:50 AM,45,43,90,29.58,7,ENE,23.0,,,Rain,Light Rain Showers,60,2012-11-05 08:50:00
8:50 AM,44.6,42.8,93,29.56,6.2,ENE,23.0,34.5,N/A,,Scattered Clouds,60,2012-11-05 08:50:00
9:50 AM,46.4,42.8,87,29.62,6.2,ENE,19.6,-,N/A,,Partly Cloudy,60,2012-11-05 09:50:00
10:50 AM,48.2,42.8,82,29.68,6.2,ENE,23.0,-,N/A,,Partly Cloudy,60,2012-11-05 10:50:00
11:50 AM,49,42,69,29.75,12,NE,18.4,,,,Partly Cloudy,40,2012-11-05 11:50:00
11:50 AM,48.2,42.8,82,29.74,6.2,NE,18.4,34.5,N/A,,Partly Cloudy,40,2012-11-05 11:50:00
12:50 PM,50.0,42.8,76,29.77,6.2,NE,18.4,-,N/A,,Partly Cloudy,40,2012-11-05 12:50:00
1:50 PM,50.0,42.8,76,29.83,6.2,NE,19.6,31.1,N/A,,Partly Cloudy,40,2012-11-05 13:50:00
2:50 PM,49,41,67,29.87,12,NNE,15.0,,,,Mostly Cloudy,30,2012-11-05 14:50:00
2:50 PM,50.0,41.0,71,29.86,6.2,NNE,15.0,26.5,N/A,,Scattered Clouds,30,2012-11-05 14:50:00
3:50 PM,48.2,39.2,71,29.89,6.2,NNE,15.0,-,N/A,,Partly Cloudy,30,2012-11-05 15:50:00
4:50 PM,44.6,39.2,81,29.92,6.2,NNE,9.2,-,N/A,,Partly Cloudy,20,2012-11-05 16:50:00
5:50 PM,43,38,74,29.98,16,North,11.5,,,,Scattered Clouds,10,2012-11-05 17:50:00
5:50 PM,42.8,37.4,81,29.95,6.2,North,11.5,-,N/A,,Partly Cloudy,10,2012-11-05 17:50:00
6:50 PM,42.8,37.4,81,30.01,6.2,NNE,13.8,-,N/A,,Partly Cloudy,20,2012-11-05 18:50:00
7:50 PM,44.6,41.0,87,30.04,6.2,NE,12.7,-,N/A,,Partly Cloudy,40,2012-11-05 19:50:00
8:50 PM,42,40,88,30.07,12,NNW,6.9,,,,Partly Cloudy,330,2012-11-05 20:50:00
8:50 PM,42.8,39.2,87,30.04,6.2,NNW,6.9,-,N/A,,Partly Cloudy,330,2012-11-05 20:50:00
9:50 PM,42.8,39.2,87,30.06,6.2,NNE,5.8,-,N/A,,Haze,20,2012-11-05 21:50:00
10:50 PM,44.6,41.0,87,30.09,6.2,North,11.5,-,N/A,,Scattered Clouds,10,2012-11-05 22:50:00
11:50 PM,42,39,83,30.12,16,North,5.8,,,,Partly Cloudy,350,2012-11-05 23:50:00
11:50 PM,41.0,39.2,93,30.09,-9999.0,North,5.8,-,N/A,,Clear,350,2012-11-05 23:50:00